FENGYUN 1C DEB

Satellite information

Favourite Embed

Satellite Type and Status

DEBRISIN ORBIT

Key statistics

Satellite FENGYUN 1C DEB at a glance.

Uptime

9556

Days in orbit

Revolutions

≈ 13.7

Per day

Orbit

SSO

Sun Synchronous Orbit

Inclination

99.3

Latest

Satellite identification and parameters

Extended collection of information and parameters for FENGYUN 1C DEB.

Object identification

Identified? True

Debris? True

Object name: FENGYUN 1C DEB

International designator: 1999-025CQC

Object number (NORAD): 32086

Object ID (CCSDS): 32086

Country: PEOPLES REPUBLIC OF CHINA (PRC)

Current information (Y/N): Y

RCS size: SMALL

Orbital parameters

Period: 105.264 minutes

Inclination: 99.2728 deg

SMA: 7384.945 km

Apoapsis: 1230.147 km

Periapsis: 783.472 km

RAAN: 246.8565 deg

Eccentricy: 0.0302423

Argument of periapsis: 193.0151 deg

Mean anomaly: 166.3063 deg

Mean motion: 13.67986763 rev/day

Mean motion (dot): 0.00002472 rev/day2

B* drag term: 0.0021529 1/REarth

Two-line elements (TLE)

Creation date: July 5, 2025, 7:06 a.m.

Reference frame: TEME

Reference center: EARTH

Epoch: July 4, 2025, 9:28 p.m. UTC

TLE line 0: 0 FENGYUN 1C DEB

TLE line 1: 1 32086U 99025CQC 25185.89473808 .00002472 00000-0 21529-2 0 9998

TLE line 2: 2 32086 99.2728 246.8565 0302423 193.0151 166.3063 13.67986763890275

Live tracking on map

Real-time ground track for satellite FENGYUN 1C DEB.

In-orbit conjunctions

A list of the most updated potential collisions computed for object FENGYUN 1C DEB.

Target Orbit TCA Probability of collision Miss distance Type
SL-14 DEB LEO 2024-12-23 09:43:36 0.0002721717 120.0 (m) DEBRIS
COSMOS 2251 DEB LEO 2024-11-11 08:07:46 0.000193602 172.0 (m) DEBRIS
DELTA 1 DEB SSO 2024-07-31 13:49:58 0.0001257722 311.0 (m) DEBRIS

Associated space launch

Chinese polar orbiting meteorological satellite

FENGYUN 1C DEB was lifted into orbit during the mission ‘Long March 4B | Feng Yun 1C’, on board a Long March 4B space rocket.

The launch took place on May 10, 1999, 1:33 a.m. from Launch Complex 7.

For more information about the launch, click the button.

Launch to space Long March 4B | Feng Yun 1C
Long March 4B | Feng Yun 1C

Agency: N/A

Status: Launch Successful

Launch date: May 10, 1999, 1:33 a.m. UTC

Rocket: Long March 4B

Launch pad: Launch Complex 7

Location: Taiyuan Satellite Launch Center, People's Republic of China

...

Latest news about this satellite

There are no fresh news available about this satellite. Check back as we update our databases every day.


Newsletter sign-up

Weekly statistics, charts and insights to help you stay on top of the space industry.